Meeker, CO

1:39 PM MDT on August 18, 2017 (GMT -0600)
Meeker

Weather History for KEEO - January, 2013

Change the Weather History Date:

Tuesday, January 1, 2013

  Actual Average Record
Temperature  
Mean Temperature 14 °F 20 °F  
Max Temperature 33 °F 33 °F 47 °F (2012)
Min Temperature -10 °F 6 °F -24 °F (2016)
Degree Days  
Heating Degree Days 50 46  
Month to date heating degree days 46  
Since 1 July heating degree days 3031 3335  
Cooling Degree Days 0 0  
Month to date cooling degree days 0  
Year to date cooling degree days 0  
Moisture  
Dew Point -3 °F    
Average Humidity 53    
Maximum Humidity 78    
Minimum Humidity 28    
Precipitation  
Precipitation T in 0.04 in 0.26 in (2003)
Month to date precipitation T 0.04  
Year to date precipitation T 0.04  
Sea Level Pressure  
Sea Level Pressure 30.38 in    
Wind  
Wind Speed 0 mph (NNE)    
Max Wind Speed 9 mph    
Max Gust Speed 9 mph    
Visibility 8 miles    
Events Snow    
T = Trace of Precipitation, MM = Missing Value Source: NWS Daily Summary

Daily Weather History Graph

Daily Weather History Graph

Search for Another Location

Airport or City:

Trip Planner

Search our weather history database for the weather conditions in past years. The results will help you decide how hot, cold, wet, or windy it might be!

Date:

Astronomy

Jan. 01, 2013 Rise Set
Actual Time 7:33 AM MST 4:57 PM MST
Civil Twilight 7:03 AM MST 5:27 PM MST
Nautical Twilight 6:29 AM MST 6:01 PM MST
Astronomical Twilight 5:56 AM MST 6:34 PM MST
Moon 9:31 PM MST (1/1) 9:47 AM MST (1/1)
Length of Visible Light 10h 24m
Length of Day
9h 23m
Waning Gibbous, 83% of the Moon is Illuminated
Jan 1
Waning Gibbous
Jan 4
Last Quarter
Jan 11
New
Jan 18
First Quarter
Jan 26
Full

Hourly Weather History & Observations

Time (MST) Temp. Windchill Dew Point Humidity Pressure Visibility Wind Dir Wind Speed Gust Speed Precip Events Conditions
12:53 AM -0.0 °F - -14.1 °F 52% 30.33 in 10.0 mi Calm Calm - N/A   Clear
1:53 AM -0.9 °F - -14.1 °F 54% 30.35 in 10.0 mi Calm Calm - N/A   Scattered Clouds
2:53 AM 3.0 °F - -11.0 °F 52% 30.35 in 10.0 mi Calm Calm - N/A   Overcast
3:53 AM 7.0 °F - -9.0 °F 48% 30.35 in 8.0 mi Calm Calm - 0.00 in   Overcast
4:53 AM 3.0 °F -6.4 °F -9.9 °F 55% 30.42 in 10.0 mi NNE 4.6 mph - 0.00 in   Overcast
5:53 AM 10.0 °F - -6.0 °F 48% 30.41 in 9.0 mi Calm Calm - N/A   Overcast
6:53 AM 12.0 °F - -5.1 °F 46% 30.45 in 8.0 mi Calm Calm - 0.00 in   Overcast
7:09 AM 12.2 °F - -4.0 °F 48% 30.15 in 3.0 mi Calm Calm - 0.00 in Snow Light Snow
7:53 AM 12.9 °F - -5.1 °F 45% 30.47 in 4.0 mi Calm Calm - 0.00 in Snow Light Snow
8:39 AM 17.6 °F - -2.2 °F 42% 30.19 in 2.5 mi Calm Calm - 0.00 in Snow Light Snow
8:53 AM 18.0 °F - -2.0 °F 41% 30.47 in 2.5 mi Calm Calm - 0.00 in Snow Light Snow
9:00 AM 17.6 °F - -2.2 °F 42% 30.20 in 3.0 mi Calm Calm - 0.00 in Snow Light Snow
9:14 AM 19.4 °F - -0.4 °F 42% 30.20 in 2.5 mi Calm Calm - 0.00 in Snow Light Snow
9:28 AM 21.2 °F - 1.4 °F 42% 30.20 in 4.0 mi Calm Calm - 0.00 in Snow Light Snow
9:53 AM 23.0 °F - 6.1 °F 48% 30.48 in 10.0 mi Calm Calm - 0.00 in   Mostly Cloudy
10:01 AM 23.0 °F - 1.4 °F 39% 30.21 in 10.0 mi Calm Calm - N/A   Scattered Clouds
10:53 AM 17.1 °F - -0.0 °F 47% 30.53 in 10.0 mi Calm Calm - N/A   Clear
11:53 AM 28.0 °F - 1.0 °F 31% 30.45 in 10.0 mi Calm Calm - N/A   Clear
12:53 PM 21.9 °F - 1.9 °F 42% 30.41 in 10.0 mi Calm Calm - N/A   Clear
1:53 PM 25.0 °F - 3.0 °F 39% 30.40 in 10.0 mi Calm Calm - N/A   Clear
2:53 PM 33.1 °F - 3.0 °F 28% 30.35 in 10.0 mi Calm Calm - N/A   Clear
3:53 PM 16.0 °F - 1.9 °F 54% 30.40 in 10.0 mi Calm Calm - N/A   Clear
4:53 PM 7.0 °F - -2.9 °F 64% 30.47 in 10.0 mi Calm Calm - N/A   Clear
5:53 PM -2.9 °F - -9.9 °F 72% 30.48 in 10.0 mi Calm Calm - N/A   Clear
6:53 PM -4.0 °F - -11.0 °F 72% 30.50 in 10.0 mi Calm Calm - N/A   Clear
7:53 PM 1.0 °F - -7.1 °F 69% 30.48 in 10.0 mi Calm Calm - N/A   Overcast
8:53 PM 9.0 °F - -2.0 °F 61% 30.43 in 10.0 mi Calm Calm - N/A   Overcast
9:53 PM 21.0 °F - -0.9 °F 38% 30.36 in 10.0 mi Calm Calm - N/A   Overcast
10:53 PM 10.0 °F - 1.0 °F 67% 30.43 in 6.0 mi Calm Calm - 0.00 in Snow Light Snow
11:53 PM 12.0 °F - 1.9 °F 64% 30.38 in 6.0 mi Calm Calm - 0.00 in Snow Light Snow